QPF
0.01 0.01 0.01 0.01 0.02 0.02 0.02 0.02 0.01 0.02 0.03 0.03 0.03 0.05 0.06 0.05 0.05 0.06 0.05 0.06 0.05 0.04 0.04 0.04 0.04 0.03 0.03 0.03 0.04 0.04 0.05 0.05 0.04 0.02 0.02 0.03 0.03 0.04 0.04 0.04 0.03 0.03 0.03
0.01 0.01 0.01 0.01 0.02 0.02 0.01 0.02 0.02 0.02 0.03 0.04 0.04 0.04 0.05 0.05 0.06 0.07 0.07 0.07 0.06 0.04 0.03 0.03 0.03 0.03 0.02 0.03 0.03 0.02 0.03 0.04 0.05 0.04 0.03 0.03 0.02 0.02 0.03 0.04 0.04 0.04 0.03
0.02 0.01 0.01 0.02 0.04 0.06 0.06 0.05 0.03 0.03 0.04 0.04 0.03 0.04 0.05 0.06 0.07 0.07 0.07 0.07 0.05 0.04 0.03 0.02 0.03 0.03 0.02 0.03 0.03 0.03 0.03 0.04 0.04 0.04 0.03 0.02 0.02 0.02 0.02 0.03 0.03 0.04 0.03
0.03 0.02 0.01 0.04 0.05 0.05 0.05 0.05 0.04 0.04 0.03 0.04 0.05 0.07 0.08 0.08 0.08 0.07 0.05 0.07 0.06 0.05 0.04 0.04 0.03 0.03 0.03 0.02 0.03 0.03 0.04 0.05 0.05 0.04 0.02 0.02 0.01 0.01 0.02 0.02 0.02 0.03 0.03
0.04 0.03 0.03 0.05 0.05 0.05 0.06 0.07 0.05 0.05 0.06 0.07 0.08 0.09 0.10 0.08 0.06 0.06 0.07 0.08 0.07 0.06 0.05 0.05 0.03 0.04 0.04 0.03 0.03 0.03 0.04 0.05 0.05 0.04 0.04 0.03 0.02 0.01 0.01 0.01 0.02 0.02 0.02
0.06 0.06 0.07 0.09 0.09 0.10 0.12 0.09 0.06 0.04 0.04 0.03 0.03 0.05 0.07 0.07 0.07 0.07 0.08 0.07 0.07 0.07 0.06 0.05 0.04 0.04 0.04 0.04 0.04 0.04 0.05 0.04 0.05 0.05 0.04 0.03 0.02 0.02 0.02 0.02 0.03 0.03 0.02
0.07 0.07 0.09 0.09 0.09 0.09 0.08 0.06 0.05 0.03 0.03 0.02 0.02 0.03 0.05 0.08 0.09 0.09 0.09 0.08 0.07 0.06 0.06 0.07 0.06 0.04 0.05 0.05 0.05 0.04 0.04 0.04 0.04 0.05 0.04 0.03 0.02 0.03 0.03 0.04 0.05 0.04 0.04
0.06 0.06 0.06 0.08 0.09 0.09 0.07 0.05 0.04 0.03 0.02 0.01 0.01 0.02 0.02 0.05 0.08 0.12 0.15 0.12 0.09 0.08 0.08 0.07 0.06 0.06 0.06 0.06 0.04 0.03 0.03 0.02 0.03 0.03 0.03 0.02 0.03 0.03 0.05 0.05 0.06 0.06 0.05
0.13 0.12 0.11 0.10 0.08 0.07 0.08 0.06 0.05 0.03 0.02 0.01 0.01 0.02 0.01 0.02 0.04 0.08 0.12 0.10 0.07 0.06 0.06 0.07 0.07 0.06 0.06 0.05 0.04 0.03 0.03 0.02 0.03 0.03 0.03 0.02 0.03 0.04 0.05 0.05 0.04 0.04 0.03
0.14 0.18 0.18 0.15 0.13 0.10 0.09 0.09 0.06 0.04 0.03 0.03 0.02 0.02 0.03 0.02 0.04 0.05 0.06 0.06 0.05 0.06 0.07 0.08 0.09 0.07 0.06 0.05 0.04 0.03 0.02 0.02 0.02 0.02 0.02 0.02 0.03 0.04 0.06 0.05 0.03 0.03 0.02
0.04 0.06 0.08 0.11 0.11 0.11 0.08 0.06 0.05 0.03 0.03 0.02 0.02 0.02 0.03 0.03 0.03 0.03 0.04 0.04 0.04 0.04 0.05 0.06 0.06 0.06 0.05 0.05 0.04 0.03 0.02 0.02 0.02 0.02 0.03 0.03 0.03 0.03 0.04 0.03 0.03 0.03 0.03
0.03 0.03 0.04 0.05 0.07 0.08 0.07 0.06 0.04 0.03 0.02 0.02 0.03 0.02 0.03 0.02 0.02 0.03 0.04 0.04 0.04 0.03 0.03 0.04 0.04 0.04 0.04 0.05 0.04 0.03 0.03 0.03 0.02 0.03 0.03 0.03 0.03 0.03 0.03 0.03 0.03 0.04 0.03
0.03 0.05 0.04 0.04 0.05 0.05 0.05 0.05 0.05 0.04 0.03 0.03 0.03 0.03 0.03 0.03 0.03 0.03 0.02 0.03 0.03 0.03 0.03 0.03 0.02 0.03 0.04 0.03 0.04 0.04 0.04 0.03 0.03 0.02 0.02 0.02 0.02 0.03 0.03 0.04 0.05 0.05 0.05
0.04 0.05 0.05 0.04 0.04 0.05 0.05 0.05 0.05 0.04 0.03 0.04 0.04 0.03 0.03 0.03 0.02 0.01 0.01 0.01 0.02 0.02 0.01 0.02 0.02 0.03 0.02 0.02 0.03 0.03 0.03 0.03 0.03 0.02 0.02 0.03 0.03 0.03 0.03 0.05 0.06 0.07 0.07
0.04 0.05 0.06 0.06 0.07 0.07 0.07 0.07 0.07 0.07 0.06 0.05 0.04 0.03 0.02 0.02 0.01 0.01 0.01 0.01 0.01 0.01 0.01 0.01 0.01 0.01 0.01 0.01 0.01 0.01 0.02 0.02 0.02 0.02 0.03 0.03 0.04 0.06 0.07 0.07 0.07 0.06 0.05
0.03 0.04 0.05 0.07 0.08 0.09 0.09 0.08 0.08 0.07 0.08 0.06 0.04 0.03 0.02 0.01 0.01 0.01 0.01 0.01 0.01 0.02 0.02 0.01 0.01 0.01 0.01 0.01 0.01 0.01 0.01 0.02 0.03 0.03 0.04 0.04 0.05 0.06 0.07 0.06 0.05 0.04 0.04
0.04 0.04 0.05 0.06 0.07 0.08 0.08 0.07 0.06 0.06 0.05 0.04 0.04 0.03 0.02 0.02 0.01 0.01 0.01 0.01 0.01 0.01 0.01 0.01 0.01 0.01 0.01 0.01 0.01 0.01 0.01 0.02 0.03 0.03 0.03 0.03 0.03 0.04 0.05 0.06 0.05 0.05 0.05
0.03 0.04 0.04 0.05 0.05 0.05 0.06 0.05 0.05 0.05 0.04 0.03 0.02 0.02 0.02 0.02 0.02 0.01 0.02 0.01 0.01 0.01 0.01 0.01 0.01 0.01 0.01 0.01 0.01 0.01 0.01 0.01 0.02 0.02 0.03 0.03 0.03 0.04 0.06 0.07 0.06 0.05 0.04
0.04 0.04 0.04 0.04 0.04 0.03 0.04 0.04 0.04 0.03 0.03 0.02 0.02 0.02 0.03 0.03 0.02 0.02 0.01 0.01 0.01 0.00 0.00 0.00 0.01 0.01 0.01 0.01 0.01 0.01 0.01 0.01 0.02 0.02 0.02 0.03 0.04 0.05 0.06 0.05 0.05 0.06 0.06
0.03 0.04 0.03 0.03 0.03 0.03 0.03 0.02 0.03 0.03 0.02 0.02 0.02 0.02 0.03 0.03 0.03 0.02 0.02 0.02 0.01 0.01 0.01 0.01 0.01 0.01 0.01 0.01 0.01 0.01 0.01 0.01 0.01 0.02 0.01 0.02 0.03 0.03 0.04 0.04 0.04 0.04 0.04
0.03 0.03 0.03 0.02 0.02 0.02 0.02 0.02 0.02 0.02 0.02 0.02 0.02 0.02 0.03 0.03 0.02 0.03 0.03 0.03 0.03 0.03 0.03 0.03 0.02 0.02 0.01 0.01 0.01 0.01 0.02 0.02 0.02 0.02 0.02 0.01 0.01 0.02 0.02 0.03 0.04 0.04 0.04
0.02 0.03 0.03 0.02 0.01 0.01 0.01 0.02 0.02 0.02 0.03 0.03 0.03 0.03 0.04 0.03 0.04 0.04 0.04 0.04 0.04 0.05 0.06 0.05 0.04 0.03 0.02 0.02 0.02 0.02 0.02 0.02 0.02 0.02 0.02 0.02 0.02 0.02 0.02 0.02 0.03 0.03 0.03
0.02 0.02 0.03 0.02 0.01 0.01 0.01 0.01 0.01 0.01 0.01 0.02 0.03 0.04 0.04 0.04 0.04 0.04 0.03 0.03 0.03 0.04 0.04 0.04 0.03 0.03 0.02 0.02 0.02 0.02 0.02 0.02 0.02 0.02 0.02 0.02 0.02 0.02 0.02 0.02 0.02 0.03 0.03
0.02 0.02 0.02 0.01 0.01 0.01 0.01 0.00 0.00 0.00 0.00 0.01 0.01 0.02 0.03 0.03 0.03 0.04 0.04 0.03 0.04 0.05 0.05 0.05 0.04 0.04 0.04 0.04 0.03 0.02 0.01 0.02 0.02 0.02 0.01 0.01 0.01 0.01 0.01 0.01 0.02 0.02 0.02
0.02 0.01 0.01 0.01 0.01 0.01 0.01 0.01 0.01 0.01 0.02 0.02 0.02 0.02 0.03 0.03 0.04 0.05 0.06 0.05 0.05 0.05 0.05 0.05 0.04 0.04 0.03 0.03 0.03 0.02 0.02 0.02 0.02 0.02 0.01 0.01 0.01 0.01 0.01 0.01 0.01 0.01 0.01
0.02 0.02 0.01 0.01 0.01 0.01 0.01 0.01 0.01 0.01 0.01 0.02 0.02 0.02 0.04 0.04 0.05 0.06 0.05 0.04 0.03 0.03 0.04 0.04 0.05 0.04 0.04 0.04 0.03 0.03 0.03 0.02 0.02 0.02 0.02 0.02 0.02 0.01 0.01 0.01 0.01 0.02 0.02
MSLP
1012.17 1012.50 1012.87 1013.22 1013.52 1013.72 1013.83 1013.85 1013.83 1013.79 1013.77 1013.79 1013.87 1013.99 1014.14 1014.28 1014.40 1014.49 1014.54 1014.57 1014.60 1014.65 1014.74 1014.89 1015.08 1015.33 1015.60 1015.88 1016.14 1016.36 1016.53 1016.64 1016.69 1016.67 1016.60 1016.49 1016.34 1016.15 1015.95 1015.74 1015.52 1015.32 1015.13
1011.35 1011.66 1012.03 1012.39 1012.71 1012.95 1013.10 1013.17 1013.18 1013.17 1013.17 1013.22 1013.31 1013.46 1013.63 1013.83 1014.01 1014.17 1014.29 1014.39 1014.47 1014.55 1014.64 1014.76 1014.92 1015.11 1015.34 1015.58 1015.82 1016.05 1016.26 1016.43 1016.56 1016.64 1016.66 1016.63 1016.54 1016.40 1016.22 1016.01 1015.79 1015.56 1015.34
1010.57 1010.89 1011.26 1011.64 1011.97 1012.24 1012.42 1012.52 1012.56 1012.58 1012.61 1012.67 1012.78 1012.95 1013.16 1013.39 1013.63 1013.86 1014.05 1014.21 1014.34 1014.44 1014.54 1014.65 1014.77 1014.92 1015.09 1015.29 1015.52 1015.75 1015.98 1016.21 1016.40 1016.56 1016.67 1016.72 1016.71 1016.63 1016.49 1016.30 1016.07 1015.83 1015.59
1009.84 1010.17 1010.56 1010.94 1011.30 1011.58 1011.79 1011.92 1011.99 1012.04 1012.09 1012.17 1012.30 1012.49 1012.72 1012.99 1013.27 1013.54 1013.79 1014.00 1014.17 1014.30 1014.41 1014.51 1014.61 1014.72 1014.86 1015.03 1015.22 1015.45 1015.70 1015.95 1016.20 1016.42 1016.61 1016.73 1016.79 1016.77 1016.69 1016.53 1016.33 1016.10 1015.85
1009.14 1009.51 1009.91 1010.31 1010.68 1010.98 1011.21 1011.36 1011.47 1011.54 1011.61 1011.72 1011.86 1012.06 1012.31 1012.60 1012.90 1013.21 1013.49 1013.74 1013.94 1014.10 1014.23 1014.32 1014.41 1014.50 1014.61 1014.75 1014.92 1015.14 1015.38 1015.65 1015.93 1016.19 1016.43 1016.61 1016.73 1016.78 1016.76 1016.66 1016.50 1016.30 1016.06
1008.49 1008.89 1009.31 1009.73 1010.10 1010.42 1010.67 1010.85 1010.98 1011.08 1011.18 1011.30 1011.47 1011.68 1011.93 1012.22 1012.53 1012.84 1013.14 1013.40 1013.63 1013.81 1013.95 1014.06 1014.15 1014.23 1014.33 1014.45 1014.60 1014.79 1015.03 1015.29 1015.57 1015.85 1016.12 1016.34 1016.51 1016.62 1016.66 1016.62 1016.52 1016.37 1016.17
1007.91 1008.33 1008.77 1009.19 1009.57 1009.90 1010.16 1010.37 1010.53 1010.66 1010.79 1010.93 1011.10 1011.32 1011.56 1011.84 1012.14 1012.44 1012.73 1013.00 1013.23 1013.42 1013.58 1013.70 1013.80 1013.89 1013.99 1014.10 1014.24 1014.41 1014.62 1014.87 1015.13 1015.41 1015.68 1015.92 1016.13 1016.28 1016.37 1016.39 1016.36 1016.27 1016.13
1007.45 1007.88 1008.31 1008.73 1009.10 1009.43 1009.70 1009.92 1010.11 1010.27 1010.42 1010.58 1010.76 1010.97 1011.20 1011.45 1011.72 1011.99 1012.26 1012.51 1012.74 1012.94 1013.11 1013.25 1013.37 1013.47 1013.58 1013.69 1013.83 1013.98 1014.17 1014.39 1014.63 1014.88 1015.14 1015.38 1015.60 1015.78 1015.91 1015.99 1016.02 1015.99 1015.91
1007.12 1007.54 1007.95 1008.34 1008.70 1009.02 1009.29 1009.53 1009.73 1009.91 1010.08 1010.25 1010.43 1010.62 1010.83 1011.04 1011.27 1011.50 1011.73 1011.95 1012.17 1012.36 1012.54 1012.70 1012.84 1012.97 1013.10 1013.22 1013.36 1013.51 1013.68 1013.87 1014.08 1014.31 1014.54 1014.77 1014.98 1015.17 1015.33 1015.45 1015.53 1015.56 1015.54
1006.96 1007.34 1007.71 1008.06 1008.38 1008.68 1008.94 1009.17 1009.39 1009.58 1009.76 1009.94 1010.10 1010.27 1010.44 1010.61 1010.79 1010.97 1011.15 1011.34 1011.53 1011.72 1011.90 1012.08 1012.24 1012.40 1012.54 1012.69 1012.83 1012.99 1013.15 1013.32 1013.51 1013.71 1013.92 1014.13 1014.33 1014.52 1014.69 1014.84 1014.95 1015.02 1015.05
1006.95 1007.27 1007.58 1007.87 1008.15 1008.40 1008.64 1008.87 1009.08 1009.27 1009.45 1009.61 1009.76 1009.90 1010.03 1010.15 1010.28 1010.40 1010.54 1010.69 1010.85 1011.02 1011.20 1011.38 1011.56 1011.74 1011.91 1012.07 1012.24 1012.40 1012.57 1012.74 1012.92 1013.11 1013.30 1013.50 1013.69 1013.87 1014.05 1014.20 1014.33 1014.42 1014.48
1007.06 1007.30 1007.53 1007.75 1007.97 1008.18 1008.39 1008.59 1008.79 1008.97 1009.13 1009.27 1009.40 1009.50 1009.58 1009.66 1009.73 1009.81 1009.90 1010.01 1010.14 1010.29 1010.45 1010.63 1010.82 1011.00 1011.19 1011.37 1011.56 1011.74 1011.92 1012.10 1012.29 1012.48 1012.68 1012.87 1013.06 1013.25 1013.42 1013.57 1013.70 1013.80 1013.86
1007.23 1007.38 1007.52 1007.67 1007.83 1007.99 1008.16 1008.33 1008.49 1008.65 1008.79 1008.90 1008.99 1009.05 1009.10 1009.13 1009.15 1009.19 1009.24 1009.31 1009.40 1009.52 1009.67 1009.83 1010.00 1010.19 1010.37 1010.57 1010.76 1010.96 1011.16 1011.37 1011.59 1011.80 1012.02 1012.23 1012.43 1012.62 1012.80 1012.94 1013.07 1013.16 1013.23
1007.41 1007.46 1007.52 1007.60 1007.69 1007.80 1007.92 1008.05 1008.18 1008.30 1008.40 1008.48 1008.53 1008.55 1008.55 1008.54 1008.53 1008.53 1008.54 1008.58 1008.64 1008.73 1008.84 1008.98 1009.13 1009.29 1009.46 1009.65 1009.84 1010.05 1010.28 1010.51 1010.76 1011.02 1011.28 1011.52 1011.76 1011.97 1012.15 1012.31 1012.43 1012.52 1012.58
1007.55 1007.51 1007.50 1007.50 1007.53 1007.59 1007.66 1007.74 1007.83 1007.91 1007.96 1008.00 1008.00 1007.98 1007.95 1007.90 1007.86 1007.83 1007.82 1007.83 1007.86 1007.92 1007.99 1008.08 1008.19 1008.31 1008.44 1008.60 1008.78 1008.99 1009.22 1009.49 1009.78 1010.08 1010.39 1010.69 1010.98 1011.23 1011.45 1011.62 1011.75 1011.84 1011.90
1007.63 1007.52 1007.43 1007.37 1007.34 1007.35 1007.37 1007.41 1007.44 1007.47 1007.47 1007.46 1007.41 1007.35 1007.28 1007.21 1007.15 1007.10 1007.07 1007.06 1007.07 1007.09 1007.12 1007.16 1007.20 1007.26 1007.34 1007.44 1007.58 1007.76 1007.99 1008.27 1008.59 1008.95 1009.32 1009.69 1010.04 1010.35 1010.62 1010.84 1011.00 1011.11 1011.18
1007.69 1007.50 1007.35 1007.23 1007.15 1007.10 1007.08 1007.06 1007.04 1007.01 1006.96 1006.88 1006.79 1006.69 1006.59 1006.49 1006.41 1006.35 1006.31 1006.29 1006.27 1006.26 1006.25 1006.22 1006.20 1006.18 1006.17 1006.20 1006.27 1006.41 1006.61 1006.88 1007.22 1007.62 1008.05 1008.49 1008.91 1009.31 1009.65 1009.94 1010.15 1010.31 1010.41
1007.73 1007.49 1007.28 1007.11 1006.98 1006.88 1006.81 1006.74 1006.66 1006.56 1006.45 1006.31 1006.17 1006.02 1005.89 1005.77 1005.68 1005.62 1005.57 1005.54 1005.51 1005.46 1005.40 1005.31 1005.21 1005.10 1004.99 1004.92 1004.91 1004.97 1005.12 1005.36 1005.70 1006.12 1006.59 1007.10 1007.61 1008.10 1008.53 1008.91 1009.20 1009.43 1009.59
1007.81 1007.51 1007.26 1007.05 1006.87 1006.73 1006.61 1006.48 1006.34 1006.18 1005.99 1005.80 1005.60 1005.41 1005.24 1005.10 1005.00 1004.94 1004.89 1004.86 1004.81 1004.74 1004.63 1004.48 1004.29 1004.07 1003.86 1003.68 1003.55 1003.52 1003.59 1003.78 1004.09 1004.51 1005.02 1005.59 1006.18 1006.76 1007.30 1007.78 1008.18 1008.50 1008.74
1007.94 1007.61 1007.32 1007.08 1006.87 1006.69 1006.51 1006.33 1006.12 1005.90 1005.65 1005.39 1005.13 1004.90 1004.70 1004.55 1004.44 1004.37 1004.33 1004.29 1004.24 1004.14 1003.99 1003.77 1003.50 1003.18 1002.85 1002.55 1002.30 1002.15 1002.13 1002.24 1002.51 1002.91 1003.43 1004.04 1004.70 1005.37 1006.01 1006.60 1007.11 1007.55 1007.89
1008.16 1007.81 1007.50 1007.23 1007.00 1006.78 1006.56 1006.32 1006.06 1005.77 1005.45 1005.14 1004.83 1004.56 1004.34 1004.17 1004.05 1003.99 1003.95 1003.91 1003.85 1003.73 1003.53 1003.26 1002.91 1002.50 1002.06 1001.63 1001.25 1000.98 1000.84 1000.87 1001.06 1001.43 1001.94 1002.57 1003.28 1004.02 1004.76 1005.46 1006.08 1006.63 1007.09
1008.46 1008.11 1007.79 1007.51 1007.26 1007.01 1006.75 1006.47 1006.15 1005.81 1005.45 1005.09 1004.74 1004.44 1004.19 1004.02 1003.90 1003.84 1003.81 1003.77 1003.70 1003.56 1003.33 1003.01 1002.59 1002.09 1001.54 1001.00 1000.51 1000.11 999.86 999.78 999.90 1000.20 1000.68 1001.31 1002.04 1002.84 1003.65 1004.43 1005.16 1005.81 1006.36
1008.83 1008.48 1008.17 1007.90 1007.64 1007.37 1007.09 1006.77 1006.43 1006.05 1005.65 1005.25 1004.89 1004.57 1004.32 1004.14 1004.03 1003.97 1003.95 1003.91 1003.84 1003.69 1003.44 1003.07 1002.59 1002.02 1001.39 1000.75 1000.15 999.65 999.29 999.11 999.14 999.37 999.80 1000.40 1001.13 1001.94 1002.79 1003.63 1004.42 1005.14 1005.76
1009.23 1008.92 1008.63 1008.36 1008.11 1007.84 1007.54 1007.21 1006.84 1006.45 1006.04 1005.63 1005.26 1004.94 1004.70 1004.53 1004.43 1004.39 1004.37 1004.35 1004.28 1004.12 1003.85 1003.45 1002.94 1002.32 1001.63 1000.92 1000.25 999.66 999.21 998.94 998.88 999.03 999.39 999.93 1000.62 1001.42 1002.26 1003.11 1003.92 1004.67 1005.32
1009.65 1009.37 1009.11 1008.87 1008.62 1008.36 1008.07 1007.74 1007.37 1006.98 1006.58 1006.19 1005.83 1005.54 1005.31 1005.17 1005.09 1005.06 1005.06 1005.04 1004.97 1004.82 1004.54 1004.14 1003.61 1002.97 1002.25 1001.51 1000.78 1000.14 999.63 999.29 999.15 999.22 999.50 999.97 1000.59 1001.32 1002.11 1002.92 1003.70 1004.42 1005.06
1010.05 1009.81 1009.58 1009.37 1009.14 1008.89 1008.61 1008.30 1007.95 1007.58 1007.21 1006.85 1006.54 1006.28 1006.09 1005.97 1005.92 1005.92 1005.93 1005.93 1005.87 1005.72 1005.45 1005.06 1004.54 1003.90 1003.19 1002.45 1001.72 1001.06 1000.51 1000.13 999.93 999.92 1000.12 1000.50 1001.02 1001.65 1002.35 1003.07 1003.77 1004.41 1004.98
Thickness
5763 5761 5759 5757 5755 5753 5751 5750 5749 5749 5748 5747 5745 5744 5742 5741 5739 5737 5735 5734 5732 5732 5731 5730 5729 5728 5726 5725 5724 5722 5720 5719 5716 5720 5721 5722 5721 5721 5722 5722 5722 5722 5722
5761 5758 5756 5754 5751 5749 5748 5747 5746 5745 5745 5743 5742 5740 5738 5737 5736 5733 5731 5730 5729 5728 5727 5726 5725 5724 5722 5721 5719 5718 5716 5715 5713 5713 5715 5715 5715 5716 5715 5715 5715 5716 5715
5757 5754 5752 5750 5748 5746 5744 5742 5741 5741 5740 5739 5737 5735 5734 5733 5731 5730 5728 5726 5725 5724 5723 5722 5720 5718 5717 5716 5715 5713 5712 5711 5710 5708 5708 5709 5709 5709 5708 5708 5708 5708 5708
5753 5749 5747 5746 5744 5742 5740 5738 5737 5735 5734 5733 5732 5731 5730 5729 5727 5725 5724 5722 5721 5720 5719 5717 5716 5714 5712 5711 5710 5708 5707 5705 5703 5702 5702 5702 5701 5701 5700 5699 5700 5700 5700
5747 5745 5742 5741 5740 5738 5735 5733 5732 5731 5729 5728 5727 5726 5725 5724 5723 5721 5719 5718 5716 5715 5713 5712 5711 5710 5709 5707 5705 5703 5701 5698 5697 5695 5695 5694 5693 5692 5692 5692 5691 5692 5693
5742 5740 5737 5734 5733 5732 5730 5729 5728 5726 5723 5722 5721 5719 5718 5718 5717 5715 5714 5712 5710 5709 5707 5706 5706 5704 5703 5701 5699 5698 5696 5693 5691 5689 5688 5687 5687 5686 5685 5684 5683 5683 5683
5735 5732 5731 5729 5727 5725 5724 5722 5720 5717 5716 5715 5714 5713 5712 5710 5709 5709 5708 5706 5704 5702 5701 5700 5699 5698 5696 5694 5693 5692 5690 5689 5688 5685 5683 5683 5681 5680 5678 5677 5676 5676 5677
5728 5725 5723 5721 5720 5719 5716 5713 5712 5711 5710 5708 5707 5706 5704 5704 5703 5702 5701 5699 5697 5696 5694 5693 5692 5690 5689 5687 5686 5684 5683 5683 5681 5680 5679 5678 5677 5675 5673 5671 5669 5668 5669
5720 5718 5716 5714 5713 5711 5708 5706 5705 5704 5703 5701 5700 5699 5697 5696 5696 5695 5693 5691 5689 5688 5687 5685 5684 5683 5681 5680 5678 5677 5676 5676 5675 5674 5673 5672 5670 5668 5666 5663 5661 5660 5661
5715 5712 5710 5708 5706 5704 5702 5700 5699 5698 5696 5694 5693 5692 5690 5689 5688 5687 5685 5683 5681 5680 5679 5678 5676 5674 5673 5672 5670 5669 5668 5668 5667 5666 5664 5663 5662 5661 5659 5657 5656 5653 5653
5709 5706 5703 5701 5699 5698 5696 5695 5693 5691 5689 5687 5686 5684 5682 5681 5680 5678 5677 5674 5673 5672 5670 5669 5668 5666 5665 5663 5662 5661 5661 5660 5659 5657 5656 5654 5653 5653 5651 5650 5649 5647 5646
5701 5698 5696 5694 5693 5693 5691 5689 5687 5684 5682 5680 5678 5676 5675 5673 5671 5670 5668 5667 5666 5663 5662 5660 5659 5657 5656 5655 5653 5652 5651 5651 5650 5648 5647 5647 5646 5644 5643 5642 5641 5640 5639
5693 5691 5689 5688 5686 5685 5684 5681 5679 5676 5674 5672 5670 5669 5667 5665 5663 5661 5660 5658 5657 5655 5653 5651 5649 5648 5647 5646 5645 5644 5642 5642 5641 5640 5639 5639 5638 5636 5635 5634 5633 5632 5631
5685 5683 5681 5680 5678 5677 5676 5674 5671 5669 5667 5665 5663 5661 5659 5657 5655 5654 5652 5650 5648 5646 5644 5642 5640 5639 5638 5637 5636 5635 5634 5632 5631 5631 5630 5629 5628 5627 5626 5625 5625 5624 5623
5677 5675 5673 5672 5670 5668 5667 5665 5664 5663 5661 5659 5657 5654 5651 5650 5648 5645 5643 5641 5640 5637 5635 5633 5631 5630 5629 5628 5627 5625 5624 5623 5622 5622 5621 5620 5619 5618 5617 5616 5615 5614 5614
5669 5667 5665 5664 5662 5660 5658 5657 5656 5655 5653 5651 5649 5646 5644 5642 5639 5637 5634 5632 5630 5628 5626 5624 5623 5621 5620 5618 5617 5616 5615 5614 5614 5613 5612 5611 5610 5610 5608 5607 5606 5605 5605
5661 5659 5658 5656 5653 5651 5649 5648 5647 5646 5644 5642 5640 5638 5635 5633 5630 5627 5624 5622 5620 5619 5618 5617 5614 5613 5611 5610 5609 5608 5607 5606 5605 5604 5603 5603 5602 5601 5600 5598 5597 5597 5597
5652 5652 5650 5648 5646 5644 5642 5640 5639 5637 5635 5634 5632 5629 5627 5624 5622 5618 5614 5612 5612 5610 5610 5608 5606 5605 5604 5602 5601 5600 5599 5598 5597 5596 5595 5594 5594 5593 5592 5591 5590 5589 5589
5643 5642 5641 5639 5638 5636 5634 5632 5631 5629 5627 5626 5624 5622 5619 5617 5614 5610 5607 5606 5605 5604 5603 5601 5599 5598 5596 5595 5594 5593 5591 5590 5589 5588 5587 5586 5586 5585 5584 5584 5583 5581 5581
5634 5634 5632 5631 5629 5627 5625 5624 5623 5621 5619 5618 5616 5615 5612 5609 5607 5605 5602 5601 5599 5598 5596 5594 5593 5591 5590 5589 5587 5586 5584 5583 5582 5581 5580 5579 5578 5577 5577 5576 5575 5574 5573
5626 5625 5624 5622 5621 5619 5617 5616 5614 5613 5612 5611 5610 5608 5605 5603 5601 5599 5597 5594 5593 5591 5590 5588 5586 5584 5582 5581 5580 5578 5577 5576 5575 5573 5573 5572 5571 5570 5569 5568 5567 5566 5565
5616 5614 5613 5612 5611 5609 5608 5607 5605 5605 5604 5603 5602 5600 5597 5595 5594 5592 5590 5588 5587 5585 5583 5581 5579 5577 5575 5573 5571 5570 5569 5569 5567 5566 5566 5565 5564 5562 5561 5560 5559 5558 5557
5606 5605 5603 5602 5600 5599 5599 5598 5597 5596 5596 5595 5594 5592 5590 5588 5586 5584 5583 5581 5579 5577 5575 5573 5571 5569 5567 5565 5564 5563 5562 5561 5560 5559 5558 5558 5556 5555 5554 5553 5551 5550 5549
5597 5596 5595 5593 5591 5591 5590 5590 5589 5588 5588 5587 5586 5584 5582 5580 5578 5577 5575 5573 5571 5569 5567 5565 5564 5562 5560 5558 5557 5556 5555 5554 5553 5552 5551 5550 5549 5548 5547 5546 5544 5543 5541
5589 5588 5587 5585 5584 5583 5582 5582 5581 5580 5579 5578 5577 5575 5573 5572 5570 5568 5566 5565 5563 5561 5559 5558 5556 5555 5553 5551 5550 5549 5548 5547 5546 5545 5544 5543 5542 5541 5540 5539 5537 5536 5534
5583 5581 5580 5578 5577 5576 5574 5573 5573 5572 5571 5570 5568 5567 5565 5563 5562 5560 5558 5556 5555 5553 5552 5550 5549 5547 5546 5545 5543 5542 5541 5540 5539 5537 5537 5536 5535 5534 5533 5532 5531 5529 5527